Regional Weather Roundup
Issued by NWS

Home | Current Version | Previous Version | Text Only | Print | Product List | Glossary On
Versions: 1 2 3 4 5 6 7 8 9 10 11 12 13 14 15 16 17 18 19 20 21 22 23 24 25 26 27
000
ASUS45 KREV 230810
RWRNV
NEVADA REGIONAL WEATHER ROUNDUP
NATIONAL WEATHER SERVICE RENO NV
1200 AM PST TUE JAN 23 2018

NOTE: "FAIR" INDICATES FEW OR NO CLOUDS BELOW 12,000 FEET WITH NO
SIGNIFICANT WEATHER AND/OR OBSTRUCTIONS TO VISIBILITY.

NVZ001-003-004-230900-
WESTERN NEVADA

CITY           SKY/WX    TMP DP  RH WIND       PRES   REMARKS
RENO           CLEAR     33  26  75 CALM      30.29S
CARSON CITY    FAIR      25  21  86 CALM      30.30F
MINDEN         FAIR      21  19  93 MISG      30.31S
SLIDE MTN        N/A     21  19  93 S6          N/A
PYRAMID LAKE     N/A     37 N/A N/A W5          N/A
FALLON         CLEAR     26  10  50 CALM      30.28F
LOVELOCK       CLEAR     21  18  88 CALM      30.28F
HAWTHORNE      CLEAR     28  18  64 SE7       30.27F
$$

NVZ002-CAZ072-073-230900-
NORTHERN AND CENTRAL SIERRA

CITY           SKY/WX    TMP DP  RH WIND       PRES   REMARKS
S. LAKE TAHOE  CLEAR     22  19  89 S3        30.27F
TRUCKEE        FOG       25  23  93 CALM      30.29S VSB 1/4
SQUAW VLY 8000   N/A     25  10  54 CALM        N/A
SUSANVILLE     CLEAR    N/A N/A N/A W3        30.29F
BLUE CANYON    CLEAR     36  28  73 E3        30.28S
MAMMOTH LAKES  FAIR      18  13  80 CALM      30.30F
BRIDGEPORT     FAIR      20  14  77 CALM      30.27S
$$

NVZ030-031-036-230900-
NORTHERN NEVADA

CITY           SKY/WX    TMP DP  RH WIND       PRES   REMARKS
ELKO           CLEAR     24  22  91 NE3       30.29F
WINNEMUCCA     CLEAR     25  21  85 SE5       30.30S
WENDOVER       PTCLDY    22  17  81 CALM      30.33F
$$

NVZ035-037-230900-
CENTRAL NEVADA

CITY           SKY/WX    TMP DP  RH WIND       PRES   REMARKS
ELY            CLEAR      6   3  87 S15       30.29F WCI -12
EUREKA           N/A     12   8  84 S7        30.29F
$$

NVZ013-014-230900-
SOUTH CENTRAL NEVADA

CITY           SKY/WX    TMP DP  RH WIND       PRES   REMARKS
TONOPAH        CLEAR     26  19  74 N8        30.29F
$$

NVZ017-020-022-230900-
SOUTHERN NEVADA

CITY           SKY/WX    TMP DP  RH WIND       PRES   REMARKS
LAS VEGAS      PTCLDY    43  27  53 SW5       30.25F
N. LAS VEGAS   CLEAR     41  25  53 NW5       30.25F
NELLIS AFB     CLEAR     40  27  59 W3        30.26S
HENDERSON      CLEAR     37  25  61 S5        30.27S
MERCURY        CLEAR     40  21  46 CALM      30.26R
$$




USA.gov is the U.S. government's official web portal to all federal, state and local government web resources and services.